Regional Weather Roundup
Issued by NWS Kansas City/Pleasant Hill, MO

Home | Current Version | Previous Version | Graphics & Text | Print | Product List | Glossary Off
Versions: 1 2 3 4 5 6 7 8 9 10 11 12 13 14 15 16 17 18 19 20 21 22 23 24 25 26 27 28 29 30 31 32 33 34 35 36 37 38 39 40 41 42 43 44 45 46 47 48 49 50

000
ASUS43 KEAX 252311
RWREAX

WEATHER ROUNDUP FOR EASTERN KANSAS AND NORTHWEST MISSOURI
NATIONAL WEATHER SERVICE KANSAS CITY/PLEASANT HILL MO
600 PM CDT FRI JUL 25 2014

KSZ040-057-103>105-MOZ028-029-037-043-260000-
...KANSAS CITY METROPOLITAN AREA...

CITY           SKY/WX    TMP DP  RH WIND       PRES   REMARKS
K.C. INTL      PTSUNNY   94  73  50 SW21G26   29.77F HX 103
K.C. DOWNTOWN  LGT RAIN  96  71  44 S17G28    29.76S HX 103
LEES SUMMIT    SUNNY     93  72  50 SW18G26   29.80F HX 101
OLATHE - IXD   MOSUNNY   96  71  44 S22G28    29.81S HX 103
OLATHE - OJC   MOSUNNY   93  72  50 S16G26    29.80S HX 101
LAWRENCE       MOSUNNY   97  70  41 S18G24    29.78R HX 103

$$

MOZ001>008-011>017-020>025-030>033-038>040-044>046-053-054-260000-
...NORTHERN AND CENTRAL MISSOURI...

CITY           SKY/WX    TMP DP  RH WIND       PRES   REMARKS
ST. JOSEPH     SUNNY     94  75  54 S10       29.73R HX 105
MOSBY          CLEAR     93  72  49 S12G18    29.77S HX 100
WARRENSBURG    MOSUNNY   90  72  55 S10       29.81F HX  96
WHITEMAN AFB   MOSUNNY   92  68  44 SW18G24   29.81F HX  96
CLINTON        SUNNY     93  73  52 S16G22    29.83F HX 102
SEDALIA        MOSUNNY   93  70  46 SW13G25   29.83F HX  99
WARSAW         NOT AVBL
MARSHALL         N/A     91  75  59 S10G17    29.79F HAZE    HX 102
CHILLICOTHE      N/A     90  75  61 S13G24    29.77F HX 100
MOBERLY        MOSUNNY   86  70  58 S15       29.81F HX  90
KIRKSVILLE     MOSUNNY   77  68  73 SE9       29.83F

$$

MOZ041-047>049-056>058-063>065-088>090-097-260000-
...EASTERN AND SOUTHERN MISSOURI...

CITY           SKY/WX    TMP DP  RH WIND       PRES   REMARKS
ST. LOUIS INTL PTSUNNY   80  62  54 S16       29.89F
SPIRIT OF STL  MOSUNNY   80  63  55 S9G16     29.87F
COLUMBIA       MOSUNNY   88  72  58 S17G23    29.84F HX  94
JEFFERSON CITY MOSUNNY   89  70  53 S12G24    29.83F HX  94
MEXICO         SUNNY     86  72  62 S16G23    29.83F HX  92
HANNIBAL       MOSUNNY   82  64  54 S6        29.85S
ROLLA          MOSUNNY   86  66  51 S16G23    29.88F
LEBANON        SUNNY     88  70  55 S13G18    29.92F HX  92
OSAGE BEACH    MOSUNNY   90  70  51 S14G21    29.86F HX  95
SPRINGFIELD    SUNNY     91  67  44 S17       29.92F HX  94
BRANSON        PTSUNNY   93  72  49 SE10      29.97S HX 100
JOPLIN         SUNNY     92  70  48 SW15      29.90R HX  97
WEST PLAINS    SUNNY     83  67  58 S12       29.99F

$$

IAZ060-094-KSZ022-034>040-054-083-096-NEZ052-066-093-260000-
...KANSAS...SOUTHEAST NEBRASKA AND IOWA...

CITY           SKY/WX    TMP DP  RH WIND       PRES   REMARKS
TOPEKA         MOSUNNY   99  69  37 S14G23    29.76S HX 105
MANHATTAN      MOSUNNY  105  66  28 SW17      29.73S HX 110
EMPORIA        MOSUNNY   96  71  44 S20       29.80S HX 103
CHANUTE        SUNNY     91  73  55 S17G25    29.85S HX  99
WICHITA        MOSUNNY  101  58  24 S23G32    29.78F HX 100
OMAHA          PTSUNNY   92  76  59 E5        29.72F HX 104
LINCOLN        SUNNY     97  69  40 W8        29.75S HX 103
FALLS CITY     SUNNY    101  69  35 SW14      29.71R HX 107
LAMONI         MOSUNNY   80  70  71 SE8       29.78F
DES MOINES     MOSUNNY   82  70  66 SE8       29.79S

$$




USA.gov is the U.S. government's official web portal to all federal, state and local government web resources and services.